Weather in Grandfontaine

Switzerland     47°23′25″N   6°56′16″E
temp.,
°C
wind,
m/s
gust,
m/s
humid.,
%
clouds,
%
prec.,
mm/h
press.,
hPa
HPBL,
m
11 may, tue
tue1123:00+9wsw2499100 0.6 1011227
02:00+9ssw2298100 1.9 101196
05:00+9nw0095100 0.2 101012
08:00+9e2398100 1.8 1009159
11:00+10sse1197100 11.9 1010133
14:00+10ese3595100 22.1 1010286
17:00+12wnw2286100 0.3 1010453
20:00+9wsw3895100 1.0 1012346
12 may, wed
wed1223:00+9sw2596100 0.4 1014222
02:00+8w61197100 2.4 1015646
05:00+7wsw589785 0.4 1015462
08:00+7w4696100 0.4 1016488
11:00+10w348091 0.1 1014845
14:00+13wnw3365100 0.3 10121260
17:00+13nw3366100 0.1 10111315
20:00+10n1183100 0.6 101230
13 may, thu
thu1323:00+9sse1186100 0.1 101211
02:00+9sw118583 0.1 101111
05:00+7sw228831 0.0 101144
08:00+8wsw34875 0.0 1011188
11:00+12w677491 0.2 1010926
14:00+10w688799 1.0 1010949
17:00+8wsw478669 0.2 1011605
20:00+10wsw347735 0.3 1010162
14 may, fri
fri1423:00+5s228744 0.0 101025
02:00+6s237982 0.0 101055
05:00+7s227396 0.0 100937
08:00+8wsw11785 0.0 1010141
11:00+12wnw226742 0.0 1010960
14:00+14nw226198 0.4 10091492
17:00+15wnw3368100 1.1 10091168
20:00+11wsw3587100 2.9 1010100
15 may, sat
sat1523:00+8sw369698 0.4 1013120
02:00+8sw369692 0.8 1014154
05:00+6sw479633 0.0 1015138
08:00+8wsw479412 0.0 1016305
11:00+11w558164 0.1 1017754
14:00+13wsw457189 0.4 10151191
17:00
20:00+12w3582100 0.1 1015126